This demonstration page uses our WeatherBlox Daily Observations layout. Learn more.

Left ArrowRight Arrow

39.51506, -84.39828

Hourly Observations for June 21, 2016

Temp ( °F °C ) Dew Point ( °F °C ) Humidity (%) Winds ( mph kmh ) Pressure ( in mb ) Visibility ( mi km ) Precip ( " mm )
12:15 am 00:15 Clear 74 23.6 67 19.5 78 78 SSW 7 11 30.03 1017 10 16 N/A
12:35 am 00:35 Clear 75 23.9 67 19.5 76 76 SW 5 7 30.03 1017 10 16 N/A
12:55 am 00:55 Clear 75 23.9 67 19.5 76 76 SW 6 9 30.03 1017 10 16 N/A
1:15 am 01:15 Clear 75 24 67 19.6 76 76 SW 3 6 30.00 1016 10 16 N/A
1:35 am 01:35 Clear 74 23.6 67 19.5 78 78 SW 6 9 30.03 1017 10 16 N/A
1:55 am 01:55 Clear 74 23.6 67 19.6 78 78 SW 6 9 30.03 1017 10 16 N/A
2:15 am 02:15 Clear 77 25 69 20.4 76 76 SW 8 13 30.00 1016 10 16 N/A
2:35 am 02:35 Clear 77 25 68 19.9 73 73 SW 7 11 30.00 1016 10 16 N/A
2:55 am 02:55 Partly Cloudy with Light Rain 76 24.3 67 19.6 75 75 WSW 9 15 30.00 1016 10 16 N/A
3:15 am 03:15 Clear 74 23.6 67 19.5 78 78 SW 5 7 29.97 1015 10 16 N/A
3:35 am 03:35 Clear 74 23.6 67 19.6 78 78 N N/A 29.97 1015 10 16 N/A
3:55 am 03:55 Partly Cloudy 74 23.6 68 20 80 80 SW 3 6 29.97 1015 10 16 N/A
4:15 am 04:15 Mostly Cloudy 74 23.6 68 20 80 80 SSW 6 9 29.94 1014 10 16 N/A
4:35 am 04:35 Mostly Cloudy 74 23.6 68 20 80 80 SSW 7 11 29.94 1014 10 16 N/A
4:55 am 04:55 Partly Cloudy 74 23.6 67 19.7 79 79 SW 6 9 29.94 1014 10 16 N/A
5:15 am 05:15 Clear 74 23.6 67 19.3 77 77 SW 6 9 29.94 1014 10 16 N/A
5:35 am 05:35 Clear 74 23.6 67 19.5 78 78 WSW 3 6 29.97 1015 10 16 N/A
5:55 am 05:55 Clear 74 23.6 67 19.6 78 78 SW 3 6 29.97 1015 10 16 N/A
6:15 am 06:15 Sunny 74 23.6 67 19.7 79 79 WSW 5 7 29.97 1015 10 16 N/A
6:35 am 06:35 Sunny 74 23.6 67 19.6 78 78 N N/A 29.97 1015 10 16 N/A
6:55 am 06:55 Sunny 74 23.6 67 19.6 78 78 N N/A 29.97 1015 10 16 N/A
7:15 am 07:15 Sunny 74 23.6 67 19.6 78 78 N N/A 29.97 1015 10 16 N/A
7:35 am 07:35 Partly Cloudy 74 23.6 67 19.6 78 78 N N/A 29.97 1015 10 16 N/A
7:55 am 07:55 Mostly Cloudy 76 24.3 68 19.8 76 76 N N/A 29.97 1015 10 16 N/A
8:15 am 08:15 Cloudy 77 24.8 69 20.3 76 76 SW 3 6 29.97 1015 10 16 N/A
8:35 am 08:35 Cloudy 77 25.1 68 19.9 73 73 SW 5 7 29.97 1015 10 16 N/A
8:55 am 08:55 Mostly Cloudy 77 25.1 68 19.9 73 73 SSW 5 7 29.97 1015 10 16 N/A
9:15 am 09:15 Partly Cloudy 80 26.5 69 20.3 69 69 WSW 6 9 29.97 1015 10 16 N/A
9:35 am 09:35 Mostly Cloudy 80 26.5 68 20 68 68 WNW 7 11 29.94 1014 10 16 N/A
9:55 am 09:55 Mostly Cloudy 80 26.8 67 19.5 64 64 W 6 9 29.94 1014 10 16 N/A
10:15 am 10:15 Partly Cloudy 81 27.2 68 19.9 64 64 W 7 11 29.94 1014 10 16 N/A
10:35 am 10:35 Mostly Cloudy 81 27.2 68 20 65 65 W 9 15 29.97 1015 10 16 N/A
10:55 am 10:55 Cloudy 80 26.9 68 19.8 65 65 WNW 6 9 29.97 1015 10 16 N/A
11:15 am 11:15 Mostly Cloudy 82 27.6 68 20 63 63 W 8 13 29.97 1015 10 16 N/A
11:35 am 11:35 Mostly Cloudy 81 27.2 67 19.5 63 63 W 6 9 29.97 1015 10 16 N/A
11:55 am 11:55 Mostly Cloudy 83 28.2 68 19.8 60 60 W 8 13 29.94 1014 10 16 N/A
12:15 pm 12:15 Partly Cloudy 83 28.4 67 19.3 58 58 W 12 19 29.94 1014 10 16 N/A
12:35 pm 12:35 Partly Cloudy 83 28.6 65 18.6 55 55 WSW 16 26 29.94 1014 10 16 N/A
12:55 pm 12:55 Sunny 85 29.4 64 17.7 49 49 W 13 20 29.94 1014 10 16 N/A
1:15 pm 13:15 Partly Cloudy 83 28.5 63 17 50 50 W 9 15 29.91 1013 10 16 N/A
1:35 pm 13:35 Partly Cloudy 87 30.7 60 15.6 40 40 WNW 15 24 29.91 1013 10 16 N/A
1:55 pm 13:55 Partly Cloudy 89 31.5 59 14.8 36 36 W 13 20 29.91 1013 10 16 N/A
2:15 pm 14:15 Sunny 90 32.1 52 11.2 28 28 W 17 28 29.91 1013 10 16 N/A
2:30 pm 14:30 Sunny 90 32.1 53 11.6 28 28 W 13 20 29.91 1013 10 16 N/A
2:55 pm 14:55 Sunny 90 32.1 49 9.7 25 25 W 16 26 29.91 1013 10 16 N/A
3:15 pm 15:15 Sunny 88 31.3 46 7.6 23 23 W 16 26 29.91 1013 10 16 N/A
3:35 pm 15:35 Sunny 90 32.1 49 9.4 25 25 W 14 22 29.91 1013 10 16 N/A
3:55 pm 15:55 Sunny 90 32.1 47 8.1 22 22 W 13 20 29.88 1012 10 16 N/A
4:15 pm 16:15 Sunny 90 32.1 45 7.2 21 21 WNW 13 20 29.88 1012 10 16 N/A
4:35 pm 16:35 Sunny 90 32.1 39 4.1 17 17 W 17 28 29.88 1012 10 16 N/A
4:55 pm 16:55 Sunny 90 32.1 40 4.6 18 18 W 13 20 29.88 1012 10 16 N/A
5:15 pm 17:15 Sunny 90 32.1 42 5.5 19 19 W 18 30 29.88 1012 10 16 N/A
5:35 pm 17:35 Sunny 89 31.9 39 4.1 17 17 WNW 12 19 29.88 1012 10 16 N/A
5:55 pm 17:55 Sunny 87 30.8 40 4.5 19 19 WNW 12 19 29.88 1012 10 16 N/A
6:15 pm 18:15 Sunny 87 30.7 41 5.1 20 20 W 9 15 29.88 1012 10 16 N/A
6:35 pm 18:35 Sunny 85 29.3 37 3 19 19 W 12 19 29.85 1011 10 16 N/A
6:55 pm 18:55 Sunny 83 28.6 38 3.3 20 20 W 15 24 29.88 1012 10 16 N/A
7:15 pm 19:15 Sunny 83 28.2 39 4 21 21 W 13 20 29.88 1012 10 16 N/A
7:35 pm 19:35 Sunny 82 28 41 5.2 23 23 W 12 19 29.88 1012 10 16 N/A
7:55 pm 19:55 Sunny 82 27.9 43 6.1 25 25 WNW 10 17 29.88 1012 10 16 N/A
8:15 pm 20:15 Sunny 81 27.1 44 6.4 27 27 W 8 13 29.91 1013 10 16 N/A
8:35 pm 20:35 Sunny 80 26.5 43 6.2 27 27 W 6 9 29.91 1013 10 16 N/A
8:55 pm 20:55 Sunny 77 25.1 47 8.4 35 35 WSW 3 6 29.91 1013 10 16 N/A
9:15 pm 21:15 Clear 74 23.6 55 12.6 50 50 N N/A 29.91 1013 10 16 N/A
9:35 pm 21:35 Clear 74 23.3 55 12.5 51 51 N N/A 29.91 1013 10 16 N/A
9:55 pm 21:55 Clear 69 20.8 53 11.9 57 57 W 3 6 29.94 1014 10 16 N/A
10:15 pm 22:15 Clear 69 20.8 57 13.9 65 65 N N/A 29.94 1014 10 16 N/A
10:35 pm 22:35 Clear 69 20.8 55 12.8 60 60 N N/A 29.94 1014 10 16 N/A
10:55 pm 22:55 Clear 67 19.5 57 13.8 70 70 N N/A 29.94 1014 10 16 N/A
11:15 pm 23:15 Clear 69 20.8 58 14.5 67 67 N N/A 29.94 1014 10 16 N/A
11:35 pm 23:35 Clear 68 19.9 57 13.7 68 68 N N/A 29.94 1014 10 16 N/A
11:55 pm 23:55 Clear 69 20.8 57 14.1 66 66 N N/A 29.94 1014 10 16 N/A

Powered by AerisWeather